UNO1245 ETAR-LICZ

Flight info

Callsign UNO1245
Flight time N/A
Altitude 29000
Route BOLKI2S BADLI Y163 PABLA/N0358F310 Y163 NATOR N850 ODINA DCT MMP DCT EVANO DCT KEMMI DCT GEN DCT LUKIM/N0290F190 M729 NORNI/N0336F290 DCT ELB/N0293F190 M729 PNZ Q789 AMANO N982 VAKOR Q789 UXUTA UXUTA1V
Aircraft A400/H-SDE2E3FGHIJ4J5M1RWXY/LB1D1

Departure

Time 2026-04-22 17:11
Airport Ramstein Air Base (ETAR)

Arrival

Time N/A
Airport Sigonella Navy Air Base (LICZ)
Time Latitude Longitude Altitude Speed Heading
2026-04-22 16:56 49.43990 7.58620 789 ft 0 kts 160°
2026-04-22 17:07 49.43980 7.58620 787 ft 5 kts 180°
2026-04-22 17:08 49.43963 7.58552 787 ft 12 kts 265°
2026-04-22 17:08 49.43956 7.58395 786 ft 17 kts 266°
2026-04-22 17:08 49.43896 7.58288 786 ft 16 kts 159°
2026-04-22 17:08 49.43799 7.58364 787 ft 16 kts 175°
2026-04-22 17:09 49.43735 7.58370 786 ft 0 kts 176°
2026-04-22 17:09 49.43731 7.58370 786 ft 4 kts 176°
2026-04-22 17:09 49.43667 7.58376 786 ft 18 kts 176°
2026-04-22 17:09 49.43485 7.58393 785 ft 21 kts 176°
2026-04-22 17:10 49.43345 7.58413 782 ft 18 kts 163°
2026-04-22 17:10 49.43314 7.58539 782 ft 0 kts 81°
2026-04-22 17:10 49.43315 7.58541 782 ft 1 kts 81°
2026-04-22 17:10 49.43339 7.58747 785 ft 62 kts 80°
2026-04-22 17:11 49.43439 7.59912 790 ft 153 kts 83°
2026-04-22 17:11 49.43591 7.61686 1267 ft 174 kts 81°
2026-04-22 17:11 49.43723 7.63564 2108 ft 185 kts 84°
2026-04-22 17:11 49.43786 7.65603 2967 ft 191 kts 85°
2026-04-22 17:12 49.44143 7.67533 4094 ft 190 kts 57°
2026-04-22 17:12 49.45243 7.68673 5157 ft 201 kts 14°
2026-04-22 17:12 49.46647 7.68284 6261 ft 216 kts 339°
2026-04-22 17:12 49.48026 7.67244 7274 ft 223 kts 340°
2026-04-22 17:13 49.49484 7.66644 8432 ft 218 kts
2026-04-22 17:13 49.50949 7.66954 9652 ft 212 kts 24°
2026-04-22 17:13 49.52198 7.68124 10750 ft 214 kts 44°
2026-04-22 17:13 49.53111 7.70057 11368 ft 237 kts 66°
2026-04-22 17:14 49.53625 7.72581 11881 ft 260 kts 75°
2026-04-22 17:14 49.54038 7.75437 12426 ft 281 kts 77°
2026-04-22 17:14 49.54311 7.77412 12935 ft 288 kts 77°
2026-04-22 17:14 49.54738 7.80461 13830 ft 294 kts 76°
2026-04-22 17:15 49.55036 7.82544 14411 ft 297 kts 76°
2026-04-22 17:15 49.55612 7.86696 15523 ft 302 kts 79°
2026-04-22 17:15 49.55665 7.89956 16373 ft 310 kts 95°
2026-04-22 17:15 49.54999 7.93141 17224 ft 319 kts 115°
2026-04-22 17:16 49.53568 7.95823 18075 ft 331 kts 137°
2026-04-22 17:16 49.51608 7.97764 18892 ft 340 kts 148°
2026-04-22 17:16 49.49494 7.99467 19624 ft 345 kts 149°
2026-04-22 17:16 49.47336 8.01156 20368 ft 350 kts 150°
2026-04-22 17:17 49.45188 8.02970 21104 ft 354 kts 146°
2026-04-22 17:17 49.43102 8.05031 21861 ft 359 kts 143°
2026-04-22 17:17 49.41042 8.07152 22617 ft 363 kts 143°
2026-04-22 17:17 49.38927 8.09349 23372 ft 368 kts 143°
2026-04-22 17:18 49.36786 8.11574 24075 ft 373 kts 143°
2026-04-22 17:18 49.34628 8.13812 24679 ft 377 kts 143°
2026-04-22 17:18 49.32435 8.16085 25235 ft 383 kts 143°
2026-04-22 17:18 49.30211 8.18387 25789 ft 387 kts 143°
2026-04-22 17:19 49.25786 8.23233 26846 ft 395 kts 141°
2026-04-22 17:19 49.21323 8.28201 27820 ft 403 kts 141°
2026-04-22 17:20 49.16734 8.33291 28734 ft 411 kts 141°
2026-04-22 17:20 49.12066 8.38453 29249 ft 416 kts 142°
2026-04-22 17:21 49.04057 8.43228 29252 ft 422 kts 177°
2026-04-22 17:22 48.98231 8.42145 29234 ft 422 kts 192°
2026-04-22 17:22 48.95367 8.41177 29237 ft 422 kts 194°
2026-04-22 17:23 48.86821 8.38019 29235 ft 421 kts 194°
2026-04-22 17:23 48.78249 8.34972 29237 ft 421 kts 194°
2026-04-22 17:24 48.72552 8.32912 29234 ft 420 kts 194°
2026-04-22 17:24 48.66868 8.30830 29238 ft 420 kts 194°
2026-04-22 17:25 48.61186 8.28754 29231 ft 420 kts 194°
2026-04-22 17:25 48.55543 8.26703 29227 ft 420 kts 194°
2026-04-22 17:26 48.49814 8.24985 29222 ft 421 kts 184°
2026-04-22 17:26 48.43975 8.25536 29219 ft 421 kts 172°
2026-04-22 17:27 48.38178 8.26872 29220 ft 421 kts 170°
2026-04-22 17:27 48.32390 8.28353 29219 ft 422 kts 170°
2026-04-22 17:28 48.26602 8.29803 29224 ft 422 kts 171°
2026-04-22 17:28 48.20797 8.31216 29222 ft 422 kts 171°
2026-04-22 17:29 48.15036 8.32604 29230 ft 422 kts 171°
2026-04-22 17:29 48.09228 8.34011 29218 ft 424 kts 171°
2026-04-22 17:30 48.03392 8.35427 29238 ft 425 kts 171°
2026-04-22 17:30 47.97553 8.36840 29231 ft 425 kts 171°
2026-04-22 17:31 47.91703 8.38252 29218 ft 425 kts 172°
2026-04-22 17:31 47.85836 8.39664 29225 ft 429 kts 172°
2026-04-22 17:32 47.79927 8.41079 29225 ft 430 kts 172°
2026-04-22 17:32 47.74020 8.42488 29218 ft 430 kts 172°
2026-04-22 17:33 47.68120 8.43849 29216 ft 428 kts 174°
2026-04-22 17:33 47.62193 8.44814 29217 ft 429 kts 176°
2026-04-22 17:34 47.56281 8.45622 29213 ft 429 kts 176°
2026-04-22 17:34 47.50331 8.46452 29213 ft 429 kts 176°
2026-04-22 17:35 47.44374 8.47313 29204 ft 432 kts 177°
2026-04-22 17:35 47.38387 8.48189 29217 ft 433 kts 177°
2026-04-22 17:36 47.32387 8.49070 29212 ft 433 kts 177°
2026-04-22 17:36 47.26390 8.49946 29198 ft 433 kts 177°
2026-04-22 17:37 47.20381 8.50821 29187 ft 435 kts 177°
2026-04-22 17:37 47.14399 8.51692 29182 ft 435 kts 177°
2026-04-22 17:38 47.08365 8.52568 29171 ft 435 kts 177°
2026-04-22 17:38 47.02341 8.53441 29168 ft 436 kts 178°
2026-04-22 17:39 46.96297 8.54312 29173 ft 437 kts 178°
2026-04-22 17:40 46.87219 8.55619 29171 ft 437 kts 178°
2026-04-22 17:40 46.81160 8.56486 29151 ft 439 kts 179°
2026-04-22 17:41 46.75128 8.57350 29152 ft 438 kts 178°
2026-04-22 17:41 46.69078 8.58216 29150 ft 436 kts 178°
2026-04-22 17:42 46.63031 8.59076 29132 ft 438 kts 179°
2026-04-22 17:42 46.57960 8.59796 29138 ft 440 kts 179°
2026-04-22 17:43 46.50817 8.60812 29146 ft 441 kts 179°
2026-04-22 17:43 46.44705 8.61677 29138 ft 442 kts 179°
2026-04-22 17:44 46.38634 8.62533 29134 ft 441 kts 179°
2026-04-22 17:44 46.32520 8.63397 29144 ft 441 kts 179°
2026-04-22 17:45 46.26398 8.64258 29158 ft 442 kts 179°
2026-04-22 17:45 46.20306 8.65109 29146 ft 443 kts 180°
2026-04-22 17:46 46.14134 8.65972 29158 ft 446 kts 180°